Year,Month,Day,Hour,Minute,Value (Times are PST for windgust in km/hr)
2012,07,03,00,54,1.60
2012,07,03,01,02,1.60
2012,07,03,01,12,1.60
2012,07,03,01,29,3.20
2012,07,03,01,30,3.20
2012,07,03,01,31,1.60
2012,07,03,01,45,1.60
2012,07,03,01,49,1.60
2012,07,03,01,50,1.60
2012,07,03,02,15,1.60
2012,07,03,02,37,3.20
2012,07,03,02,38,3.20
2012,07,03,02,39,1.60
2012,07,03,02,43,1.60
2012,07,03,02,45,3.20
2012,07,03,02,46,4.80
2012,07,03,02,47,3.20
2012,07,03,02,48,1.60
2012,07,03,02,49,1.60
2012,07,03,02,51,3.20
2012,07,03,02,52,4.80
2012,07,03,02,53,1.60
2012,07,03,02,54,1.60
2012,07,03,02,55,1.60
2012,07,03,02,56,4.80
2012,07,03,02,57,3.20
2012,07,03,02,58,3.20
2012,07,03,03,00,1.60
2012,07,03,03,01,3.20
2012,07,03,03,02,3.20
2012,07,03,03,03,3.20
2012,07,03,03,05,3.20
2012,07,03,03,06,1.60
2012,07,03,03,07,1.60
2012,07,03,03,08,4.80
2012,07,03,03,09,4.80
2012,07,03,03,10,3.20
2012,07,03,03,11,6.40
2012,07,03,03,12,4.80
2012,07,03,03,13,4.80
2012,07,03,03,14,4.80
2012,07,03,03,15,3.20
2012,07,03,03,17,1.60
2012,07,03,03,18,1.60
2012,07,03,03,19,3.20
2012,07,03,03,20,1.60
2012,07,03,03,21,3.20
2012,07,03,03,27,1.60
2012,07,03,03,28,3.20
2012,07,03,03,29,8.10
2012,07,03,03,30,6.40
2012,07,03,03,31,6.40
2012,07,03,03,32,4.80
2012,07,03,03,33,3.20
2012,07,03,03,34,6.40
2012,07,03,03,35,6.40
2012,07,03,03,36,3.20
2012,07,03,03,37,3.20
2012,07,03,03,38,3.20
2012,07,03,03,39,3.20
2012,07,03,03,40,6.40
2012,07,03,03,41,8.10
2012,07,03,03,42,6.40
2012,07,03,03,43,8.10
2012,07,03,03,44,8.10
2012,07,03,03,45,3.20
2012,07,03,03,46,4.80
2012,07,03,03,47,4.80
2012,07,03,03,48,6.40
2012,07,03,03,49,6.40
2012,07,03,03,50,4.80
2012,07,03,03,51,8.10
2012,07,03,03,52,3.20
2012,07,03,03,53,6.40
2012,07,03,03,54,6.40
2012,07,03,03,55,3.20
2012,07,03,03,56,4.80
2012,07,03,03,57,4.80
2012,07,03,03,58,3.20
2012,07,03,03,59,4.80
2012,07,03,04,00,3.20
2012,07,03,04,01,3.20
2012,07,03,04,02,3.20
2012,07,03,04,03,1.60
2012,07,03,04,04,1.60
2012,07,03,04,05,3.20
2012,07,03,04,06,4.80
2012,07,03,04,07,6.40
2012,07,03,04,08,4.80
2012,07,03,04,09,4.80
2012,07,03,04,10,1.60
2012,07,03,04,13,1.60
2012,07,03,04,14,1.60
2012,07,03,04,15,1.60
2012,07,03,04,16,3.20
2012,07,03,04,17,3.20
2012,07,03,04,18,4.80
2012,07,03,04,19,4.80
2012,07,03,04,20,1.60
2012,07,03,04,21,1.60
2012,07,03,04,22,4.80
2012,07,03,04,23,3.20
2012,07,03,04,24,4.80
2012,07,03,04,25,3.20
2012,07,03,04,26,1.60
2012,07,03,04,27,3.20
2012,07,03,04,28,4.80
2012,07,03,04,29,4.80
2012,07,03,04,30,3.20
2012,07,03,04,32,3.20
2012,07,03,04,33,1.60
2012,07,03,04,34,3.20
2012,07,03,04,35,4.80
2012,07,03,04,36,4.80
2012,07,03,04,37,1.60
2012,07,03,04,38,1.60
2012,07,03,04,41,1.60
2012,07,03,04,46,1.60
2012,07,03,04,47,1.60
2012,07,03,04,48,1.60
2012,07,03,04,56,1.60
2012,07,03,05,00,1.60
2012,07,03,05,01,4.80
2012,07,03,05,03,3.20
2012,07,03,05,04,3.20
2012,07,03,05,05,1.60
2012,07,03,05,06,1.60
2012,07,03,05,07,3.20
2012,07,03,05,08,1.60
2012,07,03,05,09,1.60
2012,07,03,05,12,1.60
2012,07,03,05,14,1.60
2012,07,03,05,15,1.60
2012,07,03,05,18,1.60
2012,07,03,05,19,4.80
2012,07,03,05,20,6.40
2012,07,03,05,21,3.20
2012,07,03,05,22,6.40
2012,07,03,05,23,3.20
2012,07,03,05,24,3.20
2012,07,03,05,25,9.60
2012,07,03,05,26,9.60
2012,07,03,05,27,6.40
2012,07,03,05,28,1.60
2012,07,03,05,29,3.20
2012,07,03,05,30,3.20
2012,07,03,05,31,1.60
2012,07,03,05,32,3.20
2012,07,03,05,33,6.40
2012,07,03,05,34,4.80
2012,07,03,05,35,4.80
2012,07,03,05,36,4.80
2012,07,03,05,37,4.80
2012,07,03,05,38,6.40
2012,07,03,05,39,3.20
2012,07,03,05,40,1.60
2012,07,03,05,41,4.80
2012,07,03,05,42,6.40
2012,07,03,05,43,1.60
2012,07,03,05,44,1.60
2012,07,03,05,45,1.60
2012,07,03,05,46,3.20
2012,07,03,05,47,1.60
2012,07,03,05,50,3.20
2012,07,03,05,51,3.20
2012,07,03,05,52,1.60
2012,07,03,05,53,1.60
2012,07,03,05,54,1.60
2012,07,03,05,55,1.60
2012,07,03,05,56,4.80
2012,07,03,05,57,4.80
2012,07,03,05,58,4.80
2012,07,03,05,59,1.60
2012,07,03,06,00,4.80
2012,07,03,06,01,6.40
2012,07,03,06,02,4.80
2012,07,03,06,03,4.80
2012,07,03,06,04,6.40
2012,07,03,06,05,4.80
2012,07,03,06,06,1.60
2012,07,03,06,07,1.60
2012,07,03,06,08,1.60
2012,07,03,06,09,3.20
2012,07,03,06,10,4.80
2012,07,03,06,11,4.80
2012,07,03,06,12,3.20
2012,07,03,06,13,1.60
2012,07,03,06,14,4.80
2012,07,03,06,15,4.80
2012,07,03,06,16,1.60
2012,07,03,06,17,4.80
2012,07,03,06,18,3.20
2012,07,03,06,19,1.60
2012,07,03,06,20,1.60
2012,07,03,06,21,3.20
2012,07,03,06,22,1.60
2012,07,03,06,23,1.60
2012,07,03,06,24,1.60
2012,07,03,06,25,1.60
2012,07,03,06,26,4.80
2012,07,03,06,27,3.20
2012,07,03,06,28,1.60
2012,07,03,06,29,3.20
2012,07,03,06,30,4.80
2012,07,03,06,31,4.80
2012,07,03,06,32,6.40
2012,07,03,06,33,3.20
2012,07,03,06,34,1.60
2012,07,03,06,35,4.80
2012,07,03,06,36,1.60
2012,07,03,06,37,1.60
2012,07,03,06,38,1.60
2012,07,03,06,39,4.80
2012,07,03,06,40,4.80
2012,07,03,06,41,3.20
2012,07,03,06,42,3.20
2012,07,03,06,43,1.60
2012,07,03,06,44,6.40
2012,07,03,06,45,4.80
2012,07,03,06,46,3.20
2012,07,03,06,47,8.10
2012,07,03,06,48,6.40
2012,07,03,06,49,3.20
2012,07,03,06,50,3.20
2012,07,03,06,51,3.20
2012,07,03,06,52,3.20
2012,07,03,06,53,4.80
2012,07,03,06,54,3.20
2012,07,03,06,55,4.80
2012,07,03,06,56,4.80
2012,07,03,06,57,4.80
2012,07,03,06,58,4.80
2012,07,03,06,59,6.40
2012,07,03,07,00,4.80
2012,07,03,07,01,4.80
2012,07,03,07,02,4.80
2012,07,03,07,03,4.80
2012,07,03,07,04,11.30
2012,07,03,07,05,8.10
2012,07,03,07,06,8.10
2012,07,03,07,07,4.80
2012,07,03,07,08,4.80
2012,07,03,07,09,6.40
2012,07,03,07,10,4.80
2012,07,03,07,11,6.40
2012,07,03,07,12,9.60
2012,07,03,07,13,9.60
2012,07,03,07,14,1.60
2012,07,03,07,15,6.40
2012,07,03,07,16,11.30
2012,07,03,07,17,8.10
2012,07,03,07,18,9.60
2012,07,03,07,19,6.40
2012,07,03,07,20,6.40
2012,07,03,07,21,6.40
2012,07,03,07,22,6.40
2012,07,03,07,23,11.30
2012,07,03,07,24,14.50
2012,07,03,07,25,4.80
2012,07,03,07,26,6.40
2012,07,03,07,27,6.40
2012,07,03,07,28,8.10
2012,07,03,07,29,3.20
2012,07,03,07,30,6.40
2012,07,03,07,31,6.40
2012,07,03,07,32,6.40
2012,07,03,07,33,9.60
2012,07,03,07,35,4.80
2012,07,03,07,36,4.80
2012,07,03,07,37,1.60
2012,07,03,07,38,4.80
2012,07,03,07,39,6.40
2012,07,03,07,40,4.80
2012,07,03,07,41,3.20
2012,07,03,07,42,4.80
2012,07,03,07,43,8.10
2012,07,03,07,44,6.40
2012,07,03,07,45,3.20
2012,07,03,07,46,9.60
2012,07,03,07,47,11.30
2012,07,03,07,48,11.30
2012,07,03,07,49,4.80
2012,07,03,07,50,6.40
2012,07,03,07,51,4.80
2012,07,03,07,52,11.30
2012,07,03,07,53,6.40
2012,07,03,07,54,4.80
2012,07,03,07,55,6.40
2012,07,03,07,56,6.40
2012,07,03,07,57,8.10
2012,07,03,07,58,3.20
2012,07,03,07,59,4.80
2012,07,03,08,00,3.20
2012,07,03,08,01,1.60
2012,07,03,08,02,3.20
2012,07,03,08,03,6.40
2012,07,03,08,04,4.80
2012,07,03,08,05,4.80
2012,07,03,08,06,4.80
2012,07,03,08,07,4.80
2012,07,03,08,08,4.80
2012,07,03,08,09,4.80
2012,07,03,08,10,1.60
2012,07,03,08,11,8.10
2012,07,03,08,12,6.40
2012,07,03,08,13,3.20
2012,07,03,08,14,4.80
2012,07,03,08,15,1.60
2012,07,03,08,16,16.10
2012,07,03,08,17,9.60
2012,07,03,08,18,11.30
2012,07,03,08,19,3.20
2012,07,03,08,20,6.40
2012,07,03,08,21,6.40
2012,07,03,08,22,4.80
2012,07,03,08,23,4.80
2012,07,03,08,24,8.10
2012,07,03,08,25,6.40
2012,07,03,08,26,4.80
2012,07,03,08,27,4.80
2012,07,03,08,28,6.40
2012,07,03,08,29,6.40
2012,07,03,08,30,4.80
2012,07,03,08,31,8.10
2012,07,03,08,32,12.90
2012,07,03,08,33,4.80
2012,07,03,08,34,8.10
2012,07,03,08,35,6.40
2012,07,03,08,36,8.10
2012,07,03,08,37,6.40
2012,07,03,08,38,4.80
2012,07,03,08,39,9.60
2012,07,03,08,40,9.60
2012,07,03,08,41,8.10
2012,07,03,08,42,9.60
2012,07,03,08,43,8.10
2012,07,03,08,44,9.60
2012,07,03,08,45,20.90
2012,07,03,08,46,16.10
2012,07,03,08,47,9.60
2012,07,03,08,48,8.10
2012,07,03,08,49,14.50
2012,07,03,08,50,16.10
2012,07,03,08,51,12.90
2012,07,03,08,52,11.30
2012,07,03,08,53,8.10
2012,07,03,08,54,8.10
2012,07,03,08,55,8.10
2012,07,03,08,56,8.10
2012,07,03,08,57,11.30
2012,07,03,08,58,8.10
2012,07,03,08,59,9.60
2012,07,03,09,00,6.40
2012,07,03,09,01,16.10
2012,07,03,09,02,6.40
2012,07,03,09,03,8.10
2012,07,03,09,04,9.60
2012,07,03,09,05,6.40
2012,07,03,09,06,14.50
2012,07,03,09,07,4.80
2012,07,03,09,08,4.80
2012,07,03,09,09,14.50
2012,07,03,09,10,9.60
2012,07,03,09,11,19.30
2012,07,03,09,12,4.80
2012,07,03,09,13,22.50
2012,07,03,09,14,12.90
2012,07,03,09,15,14.50
2012,07,03,09,16,11.30
2012,07,03,09,17,17.70
2012,07,03,09,18,9.60
2012,07,03,09,19,8.10
2012,07,03,09,20,17.70
2012,07,03,09,21,11.30
2012,07,03,09,22,24.20
2012,07,03,09,23,17.70
2012,07,03,09,24,11.30
2012,07,03,09,25,19.30
2012,07,03,09,26,4.80
2012,07,03,09,27,9.60
2012,07,03,09,28,11.30
2012,07,03,09,29,9.60
2012,07,03,09,30,8.10
2012,07,03,09,31,16.10
2012,07,03,09,32,11.30
2012,07,03,09,33,11.30
2012,07,03,09,34,11.30
2012,07,03,09,35,8.10
2012,07,03,09,36,16.10
2012,07,03,09,37,17.70
2012,07,03,09,38,11.30
2012,07,03,09,39,9.60
2012,07,03,09,40,19.30
2012,07,03,09,41,12.90
2012,07,03,09,42,32.20
2012,07,03,09,43,9.60
2012,07,03,09,44,14.50
2012,07,03,09,45,8.10
2012,07,03,09,46,9.60
2012,07,03,09,47,8.10
2012,07,03,09,48,8.10
2012,07,03,09,49,24.20
2012,07,03,09,50,16.10
2012,07,03,09,51,17.70
2012,07,03,09,52,11.30
2012,07,03,09,53,19.30
2012,07,03,09,54,14.50
2012,07,03,09,55,16.10
2012,07,03,09,56,11.30
2012,07,03,09,57,14.50
2012,07,03,09,58,11.30
2012,07,03,09,59,6.40
2012,07,03,10,00,17.70
2012,07,03,10,01,14.50
2012,07,03,10,02,8.10
2012,07,03,10,03,11.30
2012,07,03,10,04,14.50
2012,07,03,10,05,17.70
2012,07,03,10,06,8.10
2012,07,03,10,07,22.50
2012,07,03,10,08,9.60
2012,07,03,10,09,12.90
2012,07,03,10,10,17.70
2012,07,03,10,11,9.60
2012,07,03,10,12,14.50
2012,07,03,10,13,14.50
2012,07,03,10,14,6.40
2012,07,03,10,15,14.50
2012,07,03,10,16,9.60
2012,07,03,10,17,11.30
2012,07,03,10,18,14.50
2012,07,03,10,19,25.70
2012,07,03,10,20,11.30
2012,07,03,10,21,14.50
2012,07,03,10,22,17.70
2012,07,03,10,23,11.30
2012,07,03,10,24,17.70
2012,07,03,10,25,6.40
2012,07,03,10,26,8.10
2012,07,03,10,27,16.10
2012,07,03,10,28,11.30
2012,07,03,10,29,11.30
2012,07,03,10,30,16.10
2012,07,03,10,31,14.50
2012,07,03,10,32,14.50
2012,07,03,10,33,17.70
2012,07,03,10,34,14.50
2012,07,03,10,35,14.50
2012,07,03,10,36,9.60
2012,07,03,10,37,8.10
2012,07,03,10,38,11.30
2012,07,03,10,39,8.10
2012,07,03,10,40,17.70
2012,07,03,10,41,20.90
2012,07,03,10,42,14.50
2012,07,03,10,43,9.60
2012,07,03,10,44,8.10
2012,07,03,10,45,4.80
2012,07,03,10,46,14.50
2012,07,03,10,47,16.10
2012,07,03,10,48,16.10
2012,07,03,10,49,19.30
2012,07,03,10,50,9.60
2012,07,03,10,51,17.70
2012,07,03,10,52,17.70
2012,07,03,10,53,17.70
2012,07,03,10,54,11.30
2012,07,03,10,55,4.80
2012,07,03,10,56,9.60
2012,07,03,10,57,8.10
2012,07,03,10,58,14.50
2012,07,03,10,59,4.80
2012,07,03,11,00,11.30
2012,07,03,11,01,14.50
2012,07,03,11,02,4.80
2012,07,03,11,03,9.60
2012,07,03,11,04,4.80
2012,07,03,11,05,9.60
2012,07,03,11,06,11.30
2012,07,03,11,07,19.30
2012,07,03,11,08,8.10
2012,07,03,11,09,17.70
2012,07,03,11,10,17.70
2012,07,03,11,11,11.30
2012,07,03,11,12,8.10
2012,07,03,11,13,17.70
2012,07,03,11,14,9.60
2012,07,03,11,15,11.30
2012,07,03,11,16,16.10
2012,07,03,11,17,14.50
2012,07,03,11,18,14.50
2012,07,03,11,19,16.10
2012,07,03,11,20,8.10
2012,07,03,11,21,11.30
2012,07,03,11,22,11.30
2012,07,03,11,23,17.70
2012,07,03,11,24,9.60
2012,07,03,11,25,17.70
2012,07,03,11,26,11.30
2012,07,03,11,27,19.30
2012,07,03,11,28,19.30
2012,07,03,11,29,9.60
2012,07,03,11,30,19.30
2012,07,03,11,31,22.50
2012,07,03,11,32,14.50
2012,07,03,11,33,17.70
2012,07,03,11,34,24.20
2012,07,03,11,35,19.30
2012,07,03,11,36,11.30
2012,07,03,11,37,11.30
2012,07,03,11,38,9.60
2012,07,03,11,39,6.40
2012,07,03,11,40,9.60
2012,07,03,11,41,17.70
2012,07,03,11,42,12.90
2012,07,03,11,43,20.90
2012,07,03,11,44,30.60
2012,07,03,11,45,16.10
2012,07,03,11,46,16.10
2012,07,03,11,47,14.50
2012,07,03,11,48,6.40
2012,07,03,11,49,9.60
2012,07,03,11,50,22.50
2012,07,03,11,51,17.70
2012,07,03,11,52,9.60
2012,07,03,11,53,11.30
2012,07,03,11,54,9.60
2012,07,03,11,55,6.40
2012,07,03,11,56,9.60
2012,07,03,11,57,11.30
2012,07,03,11,58,14.50
2012,07,03,11,59,11.30
2012,07,03,12,00,16.10
2012,07,03,12,01,11.30
2012,07,03,12,02,11.30
2012,07,03,12,03,9.60
2012,07,03,12,04,20.90
2012,07,03,12,05,8.10
2012,07,03,12,06,9.60
2012,07,03,12,07,17.70
2012,07,03,12,08,17.70
2012,07,03,12,09,9.60
2012,07,03,12,10,11.30
2012,07,03,12,11,14.50
2012,07,03,12,12,16.10
2012,07,03,12,13,17.70
2012,07,03,12,14,3.20
2012,07,03,12,15,9.60
2012,07,03,12,16,11.30
2012,07,03,12,17,14.50
2012,07,03,12,18,9.60
2012,07,03,12,19,11.30
2012,07,03,12,20,11.30
2012,07,03,12,21,12.90
2012,07,03,12,22,17.70
2012,07,03,12,23,19.30
2012,07,03,12,24,14.50
2012,07,03,12,25,14.50
2012,07,03,12,26,9.60
2012,07,03,12,27,14.50
2012,07,03,12,28,14.50
2012,07,03,12,29,12.90
2012,07,03,12,30,19.30
2012,07,03,12,31,9.60
2012,07,03,12,32,11.30
2012,07,03,12,33,16.10
2012,07,03,12,34,16.10
2012,07,03,12,35,11.30
2012,07,03,12,36,11.30
2012,07,03,12,37,9.60
2012,07,03,12,38,16.10
2012,07,03,12,39,17.70
2012,07,03,12,40,16.10
2012,07,03,12,41,9.60
2012,07,03,12,42,11.30
2012,07,03,12,43,17.70
2012,07,03,12,44,17.70
2012,07,03,12,45,19.30
2012,07,03,12,46,16.10
2012,07,03,12,47,9.60
2012,07,03,12,48,19.30
2012,07,03,12,49,16.10
2012,07,03,12,50,22.50
2012,07,03,12,51,16.10
2012,07,03,12,52,4.80
2012,07,03,12,53,8.10
2012,07,03,12,54,17.70
2012,07,03,12,55,24.20
2012,07,03,12,56,12.90
2012,07,03,12,57,20.90
2012,07,03,12,58,11.30
2012,07,03,12,59,11.30
2012,07,03,13,00,8.10
2012,07,03,13,01,16.10
2012,07,03,13,02,6.40
2012,07,03,13,03,4.80
2012,07,03,13,04,8.10
2012,07,03,13,05,3.20
2012,07,03,13,06,19.30
2012,07,03,13,07,8.10
2012,07,03,13,08,8.10
2012,07,03,13,09,6.40
2012,07,03,13,10,4.80
2012,07,03,13,11,9.60
2012,07,03,13,12,22.50
2012,07,03,13,13,19.30
2012,07,03,13,14,17.70
2012,07,03,13,15,11.30
2012,07,03,13,16,6.40
2012,07,03,13,17,6.40
2012,07,03,13,18,8.10
2012,07,03,13,19,20.90
2012,07,03,13,20,9.60
2012,07,03,13,21,9.60
2012,07,03,13,22,9.60
2012,07,03,13,23,8.10
2012,07,03,13,24,14.50
2012,07,03,13,25,11.30
2012,07,03,13,26,8.10
2012,07,03,13,27,11.30
2012,07,03,13,28,14.50
2012,07,03,13,29,9.60
2012,07,03,13,30,9.60
2012,07,03,13,31,20.90
2012,07,03,13,32,27.40
2012,07,03,13,33,16.10
2012,07,03,13,34,6.40
2012,07,03,13,35,17.70
2012,07,03,13,36,8.10
2012,07,03,13,37,16.10
2012,07,03,13,38,11.30
2012,07,03,13,39,19.30
2012,07,03,13,40,20.90
2012,07,03,13,41,17.70
2012,07,03,13,42,19.30
2012,07,03,13,43,19.30
2012,07,03,13,44,14.50
2012,07,03,13,45,4.80
2012,07,03,13,46,9.60
2012,07,03,13,47,14.50
2012,07,03,13,48,14.50
2012,07,03,13,49,12.90
2012,07,03,13,50,11.30
2012,07,03,13,51,19.30
2012,07,03,13,52,19.30
2012,07,03,13,53,9.60
2012,07,03,13,54,19.30
2012,07,03,13,55,8.10
2012,07,03,13,56,16.10
2012,07,03,13,57,14.50
2012,07,03,13,58,19.30
2012,07,03,13,59,19.30
2012,07,03,14,00,17.70
2012,07,03,14,01,25.70
2012,07,03,14,02,14.50
2012,07,03,14,03,14.50
2012,07,03,14,04,17.70
2012,07,03,14,05,14.50
2012,07,03,14,06,19.30
2012,07,03,14,07,14.50
2012,07,03,14,08,19.30
2012,07,03,14,09,14.50
2012,07,03,14,10,11.30
2012,07,03,14,11,9.60
2012,07,03,14,12,16.10
2012,07,03,14,13,20.90
2012,07,03,14,14,19.30
2012,07,03,14,15,16.10
2012,07,03,14,16,22.50
2012,07,03,14,17,29.00
2012,07,03,14,18,19.30
2012,07,03,14,19,14.50
2012,07,03,14,20,9.60
2012,07,03,14,21,9.60
2012,07,03,14,22,19.30
2012,07,03,14,23,9.60
2012,07,03,14,24,11.30
2012,07,03,14,25,19.30
2012,07,03,14,26,17.70
2012,07,03,14,27,11.30
2012,07,03,14,28,11.30
2012,07,03,14,29,11.30
2012,07,03,14,30,16.10
2012,07,03,14,31,11.30
2012,07,03,14,32,11.30
2012,07,03,14,33,19.30
2012,07,03,14,34,22.50
2012,07,03,14,35,25.70
2012,07,03,14,36,29.00
2012,07,03,14,37,20.90
2012,07,03,14,38,16.10
2012,07,03,14,39,12.90
2012,07,03,14,40,29.00
2012,07,03,14,41,33.80
2012,07,03,14,42,11.30
2012,07,03,14,43,14.50
2012,07,03,14,44,16.10
2012,07,03,14,45,19.30
2012,07,03,14,46,20.90
2012,07,03,14,47,17.70
2012,07,03,14,48,22.50
2012,07,03,14,49,38.60
2012,07,03,14,50,14.50
2012,07,03,14,51,22.50
2012,07,03,14,52,6.40
2012,07,03,14,53,12.90
2012,07,03,14,54,9.60
2012,07,03,14,55,11.30
2012,07,03,14,56,9.60
2012,07,03,14,57,14.50
2012,07,03,14,58,14.50
2012,07,03,14,59,8.10
2012,07,03,15,00,25.70
2012,07,03,15,01,32.20
2012,07,03,15,02,25.70
2012,07,03,15,03,16.10
2012,07,03,15,04,14.50
2012,07,03,15,05,14.50
2012,07,03,15,06,11.30
2012,07,03,15,07,25.70
2012,07,03,15,08,9.60
2012,07,03,15,09,16.10
2012,07,03,15,10,9.60
2012,07,03,15,11,20.90
2012,07,03,15,12,16.10
2012,07,03,15,13,6.40
2012,07,03,15,14,9.60
2012,07,03,15,15,12.90
2012,07,03,15,16,14.50
2012,07,03,15,17,19.30
2012,07,03,15,18,11.30
2012,07,03,15,19,6.40
2012,07,03,15,20,16.10
2012,07,03,15,21,8.10
2012,07,03,15,22,19.30
2012,07,03,15,23,6.40
2012,07,03,15,24,9.60
2012,07,03,15,25,16.10
2012,07,03,15,26,9.60
2012,07,03,15,27,11.30
2012,07,03,15,28,27.40
2012,07,03,15,29,16.10
2012,07,03,15,30,17.70
2012,07,03,15,31,17.70
2012,07,03,15,32,24.20
2012,07,03,15,33,19.30
2012,07,03,15,34,12.90
2012,07,03,15,35,16.10
2012,07,03,15,36,12.90
2012,07,03,15,37,20.90
2012,07,03,15,38,19.30
2012,07,03,15,39,14.50
2012,07,03,15,40,9.60
2012,07,03,15,41,14.50
2012,07,03,15,42,17.70
2012,07,03,15,43,14.50
2012,07,03,15,44,16.10
2012,07,03,15,45,19.30
2012,07,03,15,46,11.30
2012,07,03,15,47,22.50
2012,07,03,15,48,14.50
2012,07,03,15,49,11.30
2012,07,03,15,50,16.10
2012,07,03,15,51,8.10
2012,07,03,15,52,17.70
2012,07,03,15,53,14.50
2012,07,03,15,54,14.50
2012,07,03,15,55,17.70
2012,07,03,15,56,16.10
2012,07,03,15,57,20.90
2012,07,03,15,58,11.30
2012,07,03,15,59,9.60
2012,07,03,16,00,6.40
2012,07,03,16,01,8.10
2012,07,03,16,02,20.90
2012,07,03,16,03,16.10
2012,07,03,16,04,8.10
2012,07,03,16,05,6.40
2012,07,03,16,06,20.90
2012,07,03,16,07,9.60
2012,07,03,16,08,16.10
2012,07,03,16,09,9.60
2012,07,03,16,10,14.50
2012,07,03,16,11,17.70
2012,07,03,16,12,8.10
2012,07,03,16,13,16.10
2012,07,03,16,14,11.30
2012,07,03,16,15,8.10
2012,07,03,16,16,11.30
2012,07,03,16,17,6.40
2012,07,03,16,18,12.90
2012,07,03,16,19,16.10
2012,07,03,16,20,19.30
2012,07,03,16,21,6.40
2012,07,03,16,22,8.10
2012,07,03,16,23,16.10
2012,07,03,16,24,9.60
2012,07,03,16,25,29.00
2012,07,03,16,26,11.30
2012,07,03,16,27,16.10
2012,07,03,16,28,12.90
2012,07,03,16,29,12.90
2012,07,03,16,30,9.60
2012,07,03,16,31,9.60
2012,07,03,16,32,9.60
2012,07,03,16,33,6.40
2012,07,03,16,34,14.50
2012,07,03,16,35,6.40
2012,07,03,16,36,4.80
2012,07,03,16,37,16.10
2012,07,03,16,38,8.10
2012,07,03,16,39,9.60
2012,07,03,16,40,14.50
2012,07,03,16,41,19.30
2012,07,03,16,42,19.30
2012,07,03,16,43,24.20
2012,07,03,16,44,11.30
2012,07,03,16,45,16.10
2012,07,03,16,46,6.40
2012,07,03,16,47,4.80
2012,07,03,16,48,6.40
2012,07,03,16,49,14.50
2012,07,03,16,50,11.30
2012,07,03,16,51,17.70
2012,07,03,16,52,8.10
2012,07,03,16,53,16.10
2012,07,03,16,54,17.70
2012,07,03,16,55,11.30
2012,07,03,16,56,16.10
2012,07,03,16,57,14.50
2012,07,03,16,58,8.10
2012,07,03,16,59,14.50
2012,07,03,17,00,19.30
2012,07,03,17,01,8.10
2012,07,03,17,02,9.60
2012,07,03,17,03,9.60
2012,07,03,17,04,11.30
2012,07,03,17,05,33.80
2012,07,03,17,06,19.30
2012,07,03,17,07,16.10
2012,07,03,17,08,17.70
2012,07,03,17,09,20.90
2012,07,03,17,10,14.50
2012,07,03,17,11,16.10
2012,07,03,17,12,8.10
2012,07,03,17,13,22.50
2012,07,03,17,14,20.90
2012,07,03,17,15,17.70
2012,07,03,17,16,8.10
2012,07,03,17,17,22.50
2012,07,03,17,18,16.10
2012,07,03,17,19,11.30
2012,07,03,17,20,14.50
2012,07,03,17,21,9.60
2012,07,03,17,22,9.60
2012,07,03,17,23,14.50
2012,07,03,17,24,11.30
2012,07,03,17,25,6.40
2012,07,03,17,26,14.50
2012,07,03,17,27,9.60
2012,07,03,17,28,11.30
2012,07,03,17,29,12.90
2012,07,03,17,30,9.60
2012,07,03,17,31,8.10
2012,07,03,17,32,22.50
2012,07,03,17,33,16.10
2012,07,03,17,34,12.90
2012,07,03,17,35,8.10
2012,07,03,17,36,4.80
2012,07,03,17,37,8.10
2012,07,03,17,38,8.10
2012,07,03,17,39,24.20
2012,07,03,17,40,12.90
2012,07,03,17,41,9.60
2012,07,03,17,42,8.10
2012,07,03,17,43,16.10
2012,07,03,17,44,22.50
2012,07,03,17,45,9.60
2012,07,03,17,46,19.30
2012,07,03,17,47,14.50
2012,07,03,17,48,11.30
2012,07,03,17,49,11.30
2012,07,03,17,50,12.90
2012,07,03,17,51,16.10
2012,07,03,17,52,16.10
2012,07,03,17,53,14.50
2012,07,03,17,54,8.10
2012,07,03,17,55,11.30
2012,07,03,17,56,14.50
2012,07,03,17,57,11.30
2012,07,03,17,58,8.10
2012,07,03,17,59,4.80
2012,07,03,18,00,17.70
2012,07,03,18,01,20.90
2012,07,03,18,02,11.30
2012,07,03,18,03,14.50
2012,07,03,18,04,19.30
2012,07,03,18,05,3.20
2012,07,03,18,06,14.50
2012,07,03,18,07,11.30
2012,07,03,18,08,4.80
2012,07,03,18,09,4.80
2012,07,03,18,10,11.30
2012,07,03,18,11,9.60
2012,07,03,18,12,16.10
2012,07,03,18,13,16.10
2012,07,03,18,14,17.70
2012,07,03,18,15,11.30
2012,07,03,18,16,19.30
2012,07,03,18,17,16.10
2012,07,03,18,18,9.60
2012,07,03,18,19,12.90
2012,07,03,18,20,17.70
2012,07,03,18,21,20.90
2012,07,03,18,22,14.50
2012,07,03,18,23,19.30
2012,07,03,18,24,16.10
2012,07,03,18,25,24.20
2012,07,03,18,26,22.50
2012,07,03,18,27,17.70
2012,07,03,18,28,19.30
2012,07,03,18,29,19.30
2012,07,03,18,30,8.10
2012,07,03,18,31,8.10
2012,07,03,18,32,6.40
2012,07,03,18,33,20.90
2012,07,03,18,34,20.90
2012,07,03,18,35,19.30
2012,07,03,18,36,4.80
2012,07,03,18,37,16.10
2012,07,03,18,38,14.50
2012,07,03,18,39,22.50
2012,07,03,18,40,11.30
2012,07,03,18,41,16.10
2012,07,03,18,42,19.30
2012,07,03,18,43,16.10
2012,07,03,18,44,11.30
2012,07,03,18,45,8.10
2012,07,03,18,46,8.10
2012,07,03,18,47,8.10
2012,07,03,18,48,9.60
2012,07,03,18,49,8.10
2012,07,03,18,50,4.80
2012,07,03,18,51,8.10
2012,07,03,18,52,16.10
2012,07,03,18,53,17.70
2012,07,03,18,54,4.80
2012,07,03,18,55,19.30
2012,07,03,18,56,11.30
2012,07,03,18,57,4.80
2012,07,03,18,58,4.80
2012,07,03,18,59,8.10
2012,07,03,19,00,6.40
2012,07,03,19,01,9.60
2012,07,03,19,02,14.50
2012,07,03,19,03,16.10
2012,07,03,19,04,4.80
2012,07,03,19,05,3.20
2012,07,03,19,06,3.20
2012,07,03,19,07,9.60
2012,07,03,19,08,9.60
2012,07,03,19,09,8.10
2012,07,03,19,10,6.40
2012,07,03,19,11,6.40
2012,07,03,19,12,9.60
2012,07,03,19,13,6.40
2012,07,03,19,14,6.40
2012,07,03,19,15,1.60
2012,07,03,19,16,8.10
2012,07,03,19,17,9.60
2012,07,03,19,18,6.40
2012,07,03,19,19,11.30
2012,07,03,19,20,4.80
2012,07,03,19,21,14.50
2012,07,03,19,22,3.20
2012,07,03,19,23,3.20
2012,07,03,19,24,11.30
2012,07,03,19,25,8.10
2012,07,03,19,26,14.50
2012,07,03,19,27,16.10
2012,07,03,19,28,6.40
2012,07,03,19,29,6.40
2012,07,03,19,30,9.60
2012,07,03,19,31,3.20
2012,07,03,19,32,4.80
2012,07,03,19,33,6.40
2012,07,03,19,34,3.20
2012,07,03,19,35,11.30
2012,07,03,19,36,6.40
2012,07,03,19,37,1.60
2012,07,03,19,38,6.40
2012,07,03,19,39,6.40
2012,07,03,19,40,1.60
2012,07,03,19,41,3.20
2012,07,03,19,42,9.60
2012,07,03,19,43,8.10
2012,07,03,19,44,4.80
2012,07,03,19,45,8.10
2012,07,03,19,46,8.10
2012,07,03,19,47,11.30
2012,07,03,19,48,3.20
2012,07,03,19,49,4.80
2012,07,03,19,50,3.20
2012,07,03,19,51,6.40
2012,07,03,19,52,8.10
2012,07,03,19,53,4.80
2012,07,03,19,54,6.40
2012,07,03,19,55,6.40
2012,07,03,19,56,3.20
2012,07,03,19,57,3.20
2012,07,03,19,58,9.60
2012,07,03,19,59,4.80
2012,07,03,20,00,8.10
2012,07,03,20,01,1.60
2012,07,03,20,02,4.80
2012,07,03,20,05,3.20
2012,07,03,20,06,3.20
2012,07,03,20,07,1.60
2012,07,03,20,08,3.20
2012,07,03,20,09,4.80
2012,07,03,20,10,14.50
2012,07,03,20,11,1.60
2012,07,03,20,12,3.20
2012,07,03,20,13,3.20
2012,07,03,20,15,4.80
2012,07,03,20,16,4.80
2012,07,03,20,17,3.20
2012,07,03,20,18,3.20
2012,07,03,20,19,3.20
2012,07,03,20,20,4.80
2012,07,03,20,21,6.40
2012,07,03,20,22,4.80
2012,07,03,20,23,3.20
2012,07,03,20,24,4.80
2012,07,03,20,25,4.80
2012,07,03,20,27,1.60
2012,07,03,20,28,1.60
2012,07,03,20,29,6.40
2012,07,03,20,30,3.20
2012,07,03,20,31,1.60
2012,07,03,20,32,4.80
2012,07,03,20,33,1.60
2012,07,03,20,34,3.20
2012,07,03,20,35,1.60
2012,07,03,20,36,6.40
2012,07,03,20,37,3.20
2012,07,03,20,38,3.20
2012,07,03,20,39,1.60
2012,07,03,20,40,4.80
2012,07,03,20,41,4.80
2012,07,03,20,42,1.60
2012,07,03,20,43,3.20
2012,07,03,20,44,1.60
2012,07,03,20,45,1.60
2012,07,03,20,46,3.20
2012,07,03,20,47,1.60
2012,07,03,20,48,6.40
2012,07,03,20,49,8.10
2012,07,03,20,50,3.20
2012,07,03,20,51,9.60
2012,07,03,20,52,4.80
2012,07,03,20,53,8.10
2012,07,03,20,54,6.40
2012,07,03,20,55,9.60
2012,07,03,20,56,1.60
2012,07,03,20,57,4.80
2012,07,03,20,58,1.60